When you browse on this site, cookies collect data to enhance your experience and personalize the content and advertising you see.
Visit our Privacy Policy to learn more. By continuing to use the site, you agree to this use of cookies and data.
  • In Latvia
  • List of Countries
  • For 7 days
  • Water Temperature
  • Satellite Maps
  • Weather Map
  • Weather Widgets
  • user-avatar
    Login

    Hourly Weather Quito

    Today, 17 July, Wednesday

    Time Temperature Precipitation Wind Pressure Humidity
    00:00 +13°C° 0 mm 2 mps 623 mmHg 29%
    01:00 +12°C° 0 mm 2 mps 623 mmHg 31%
    02:00 +12°C° 0 mm 2 mps 623 mmHg 34%
    03:00 +10°C° 0 mm 2 mps 623 mmHg 38%
    04:00 +10°C° 0 mm 2 mps 622 mmHg 41%
    05:00 +10°C° 0 mm 2 mps 623 mmHg 43%
    06:00 +10°C° 0 mm 2 mps 624 mmHg 45%
    07:00 +12°C° 0 mm 2 mps 624 mmHg 45%
    08:00 +15°C° 0 mm 2 mps 625 mmHg 39%
    09:00 +19°C° 0 mm 3 mps 626 mmHg 32%
    10:00 +22°C° 0 mm 4 mps 627 mmHg 25%
    11:00 +25°C° 0 mm 3 mps 627 mmHg 22%
    12:00 +26°C° 0 mm 3 mps 627 mmHg 20%
    13:00 +28°C° 0 mm 2 mps 626 mmHg 17%
    14:00 +28°C° 0 mm 2 mps 626 mmHg 16%
    15:00 +28°C° 0 mm 2 mps 625 mmHg 16%
    16:00 +27°C° 0 mm 2 mps 625 mmHg 15%
    17:00 +24°C° 0 mm 1 mps 624 mmHg 19%
    18:00 +21°C° 0 mm 1 mps 624 mmHg 23%
    19:00 +18°C° 0 mm 1 mps 623 mmHg 27%
    20:00 +16°C° 0 mm 1 mps 623 mmHg 28%
    21:00 +16°C° 0 mm 1 mps 624 mmHg 28%
    22:00 +15°C° 0 mm 1 mps 624 mmHg 29%
    23:00 +15°C° 0 mm 1 mps 624 mmHg 32%

    Tomorrow, 18 July, Thursday

    Time Temperature Precipitation Wind Pressure Humidity
    00:00 +14°C° 0 mm 2 mps 623 mmHg 34%
    01:00 +13°C° 0 mm 2 mps 623 mmHg 37%
    02:00 +13°C° 0 mm 2 mps 623 mmHg 40%
    03:00 +12°C° 0 mm 2 mps 622 mmHg 44%
    04:00 +11°C° 0 mm 1 mps 622 mmHg 48%
    05:00 +11°C° 0 mm 1 mps 623 mmHg 47%
    06:00 +11°C° 0 mm 1 mps 623 mmHg 47%
    07:00 +12°C° 0 mm 1 mps 623 mmHg 47%
    08:00 +15°C° 0 mm 2 mps 624 mmHg 39%
    09:00 +19°C° 0 mm 3 mps 625 mmHg 31%
    10:00 +23°C° 0 mm 4 mps 626 mmHg 23%
    11:00 +25°C° 0 mm 4 mps 626 mmHg 21%
    12:00 +27°C° 0 mm 3 mps 626 mmHg 18%
    13:00 +28°C° 0 mm 3 mps 626 mmHg 16%
    14:00 +28°C° 0 mm 3 mps 625 mmHg 16%
    15:00 +28°C° 0 mm 3 mps 625 mmHg 15%
    16:00 +28°C° 0 mm 3 mps 624 mmHg 15%
    17:00 +25°C° 0 mm 2 mps 624 mmHg 19%
    18:00 +20°C° 0 mm 2 mps 623 mmHg 23%
    19:00 +18°C° 0 mm 1 mps 622 mmHg 27%
    20:00 +16°C° 0 mm 1 mps 623 mmHg 29%
    21:00 +15°C° 0 mm 1 mps 623 mmHg 31%
    22:00 +14°C° 0 mm 1 mps 623 mmHg 32%
    23:00 +14°C° 0 mm 1 mps 623 mmHg 36%

    Day after tomorrow, 19 July, Friday

    Time Temperature Precipitation Wind Pressure Humidity
    00:00 +13°C° 0 mm 1 mps 622 mmHg 39%
    01:00 +12°C° 0 mm 2 mps 622 mmHg 43%
    02:00 +12°C° 0 mm 2 mps 622 mmHg 45%
    03:00 +10°C° 0 mm 2 mps 621 mmHg 48%
    04:00 +9°C° 0 mm 2 mps 621 mmHg 51%
    05:00 +10°C° 0 mm 2 mps 622 mmHg 50%
    06:00 +11°C° 0 mm 1 mps 622 mmHg 48%
    07:00 +11°C° 0 mm 1 mps 623 mmHg 47%
    08:00 +15°C° 0 mm 2 mps 624 mmHg 39%
    09:00 +19°C° 0 mm 3 mps 625 mmHg 31%
    10:00 +22°C° 0 mm 4 mps 626 mmHg 23%
    11:00 +25°C° 0 mm 4 mps 626 mmHg 20%
    12:00 +26°C° 0 mm 4 mps 626 mmHg 17%
    13:00 +28°C° 0 mm 3 mps 625 mmHg 14%
    14:00 +28°C° 0 mm 3 mps 625 mmHg 14%
    15:00 +28°C° 0 mm 3 mps 624 mmHg 13%
    16:00 +28°C° 0 mm 3 mps 624 mmHg 13%
    17:00 +24°C° 0 mm 2 mps 623 mmHg 17%
    18:00 +20°C° 0 mm 1 mps 622 mmHg 22%
    19:00 +16°C° 0 mm 1 mps 622 mmHg 26%
    20:00 +15°C° 0 mm 1 mps 622 mmHg 28%
    21:00 +14°C° 0 mm 1 mps 622 mmHg 31%
    22:00 +14°C° 0 mm 1 mps 622 mmHg 33%
    23:00 +13°C° 0 mm 1 mps 622 mmHg 36%

    20 July, Saturday

    Time Temperature Precipitation Wind Pressure Humidity
    00:00 +12°C° 0 mm 1 mps 622 mmHg 39%
    01:00 +11°C° 0 mm 1 mps 621 mmHg 42%
    02:00 +11°C° 0 mm 1 mps 621 mmHg 44%
    03:00 +10°C° 0 mm 1 mps 621 mmHg 46%
    04:00 +10°C° 0 mm 1 mps 620 mmHg 48%
    05:00 +10°C° 0 mm 1 mps 621 mmHg 46%
    06:00 +11°C° 0 mm 1 mps 622 mmHg 45%
    07:00 +11°C° 0 mm 1 mps 623 mmHg 43%
    08:00 +15°C° 0 mm 2 mps 624 mmHg 35%
    09:00 +19°C° 0 mm 3 mps 625 mmHg 27%
    10:00 +23°C° 0 mm 4 mps 626 mmHg 18%
    11:00 +25°C° 0 mm 4 mps 626 mmHg 16%
    12:00 +26°C° 0 mm 3 mps 625 mmHg 14%
    13:00 +28°C° 0 mm 3 mps 625 mmHg 12%
    14:00 +28°C° 0 mm 3 mps 624 mmHg 12%
    15:00 +28°C° 0 mm 3 mps 624 mmHg 11%
    16:00 +28°C° 0 mm 3 mps 623 mmHg 11%
    17:00 +24°C° 0 mm 2 mps 623 mmHg 15%
    18:00 +20°C° 0 mm 2 mps 622 mmHg 18%
    19:00 +16°C° 0 mm 1 mps 622 mmHg 22%
    20:00 +16°C° 0 mm 1 mps 622 mmHg 23%
    21:00 +15°C° 0 mm 1 mps 622 mmHg 24%
    22:00 +14°C° 0 mm 1 mps 622 mmHg 25%
    23:00 +13°C° 0 mm 1 mps 622 mmHg 27%

    21 July, Sunday

    Time Temperature Precipitation Wind Pressure Humidity
    00:00 +13°C° 0 mm 1 mps 622 mmHg 30%
    01:00 +12°C° 0 mm 1 mps 621 mmHg 33%
    02:00 +11°C° 0 mm 1 mps 621 mmHg 34%
    03:00 +11°C° 0 mm 1 mps 621 mmHg 36%
    04:00 +11°C° 0 mm 1 mps 621 mmHg 37%
    05:00 +11°C° 0 mm 1 mps 622 mmHg 37%
    06:00 +12°C° 0 mm 1 mps 623 mmHg 36%
    07:00 +13°C° 0 mm 1 mps 623 mmHg 36%
    08:00 +17°C° 0 mm 2 mps 624 mmHg 29%
    09:00 +21°C° 0 mm 2 mps 625 mmHg 23%
    10:00 +26°C° 0 mm 3 mps 626 mmHg 16%
    11:00 +27°C° 0 mm 3 mps 626 mmHg 15%
    12:00 +28°C° 0 mm 3 mps 626 mmHg 14%
    13:00 +29°C° 0 mm 3 mps 625 mmHg 13%
    14:00 +29°C° 0 mm 3 mps 625 mmHg 12%
    15:00 +29°C° 0 mm 2 mps 625 mmHg 12%
    16:00 +29°C° 0 mm 2 mps 624 mmHg 12%
    17:00 +25°C° 0 mm 1 mps 623 mmHg 16%
    18:00 +22°C° 0 mm 1 mps 623 mmHg 20%
    19:00 +18°C° 0 mm 1 mps 622 mmHg 24%
    20:00 +16°C° 0 mm 1 mps 622 mmHg 25%
    21:00 +15°C° 0 mm 1 mps 622 mmHg 26%
    22:00 +15°C° 0 mm 1 mps 623 mmHg 27%
    23:00 +14°C° 0 mm 1 mps 622 mmHg 30%

    22 July, Monday

    Time Temperature Precipitation Wind Pressure Humidity
    00:00 +13°C° 0 mm 1 mps 622 mmHg 32%
    01:00 +12°C° 0 mm 1 mps 621 mmHg 34%
    02:00 +11°C° 0 mm 0 mps 621 mmHg 36%
    03:00 +10°C° 0 mm 0 mps 621 mmHg 37%
    04:00 +9°C° 0 mm 0 mps 621 mmHg 39%
    05:00 +10°C° 0 mm 0 mps 622 mmHg 38%
    06:00 +11°C° 0 mm 0 mps 622 mmHg 37%
    07:00 +12°C° 0 mm 0 mps 623 mmHg 36%
    08:00 +17°C° 0 mm 2 mps 624 mmHg 29%
    09:00 +21°C° 0 mm 3 mps 625 mmHg 23%
    10:00 +25°C° 0 mm 4 mps 626 mmHg 16%
    11:00 +27°C° 0 mm 4 mps 626 mmHg 15%
    12:00 +28°C° 0 mm 3 mps 626 mmHg 14%
    13:00 +29°C° 0 mm 3 mps 625 mmHg 13%
    14:00 +29°C° 0 mm 3 mps 625 mmHg 13%
    15:00 +29°C° 0 mm 3 mps 624 mmHg 13%
    16:00 +29°C° 0 mm 2 mps 624 mmHg 13%
    17:00 +26°C° 0 mm 2 mps 623 mmHg 17%
    18:00 +23°C° 0 mm 2 mps 623 mmHg 20%
    19:00 +18°C° 0 mm 2 mps 622 mmHg 24%
    20:00 +19°C° 0 mm 1 mps 622 mmHg 25%
    21:00 +18°C° 0 mm 1 mps 623 mmHg 26%
    22:00 +16°C° 0 mm 1 mps 623 mmHg 27%
    23:00 +15°C° 0 mm 1 mps 622 mmHg 29%
    Show more